| time (UTC) | temp F | wind direction | speed MPH | gust MPH | rain 1hr in | rain 24hr in | rain mn in | humidity % | barometer mb |
| 20260510084555 | 56 | 202 | 0.0 | 0.0 | 0.00 | 0.00 | 0.00 | 55 | 1017.8 |
| 20260510083054 | 56 | 202 | 0.0 | 0.0 | 0.00 | 0.00 | 0.00 | 55 | 1017.7 |
| 20260510081613 | 56 | 202 | 0.0 | 0.0 | 0.00 | 0.00 | 0.00 | 54 | 1017.8 |
| 20260510080049 | 57 | 202 | 0.0 | 0.0 | 0.00 | 0.00 | 0.00 | 53 | 1017.7 |
| 20260510074549 | 57 | 202 | 0.0 | 0.0 | 0.00 | 0.00 | 0.00 | 51 | 1017.9 |
| 20260510073046 | 58 | 202 | 0.0 | 0.0 | 0.00 | 0.00 | 0.00 | 50 | 1018.0 |
| 20260510071545 | 58 | 202 | 0.0 | 0.0 | 0.00 | 0.00 | 0.00 | 47 | 1018.0 |
| 20260510070043 | 58 | 202 | 0.0 | 0.0 | 0.00 | 0.00 | 0.00 | 47 | 1018.0 |
| 20260510064543 | 58 | 202 | 0.0 | 0.0 | 0.00 | 0.00 | 0.00 | 46 | 1017.9 |
| 20260510063042 | 59 | 202 | 0.0 | 0.0 | 0.00 | 0.00 | 0.00 | 45 | 1017.9 |
| 20260510061541 | 59 | 202 | 0.0 | 0.0 | 0.00 | 0.00 | 0.00 | 43 | 1018.1 |
| 20260510060049 | 59 | 202 | 0.0 | 0.0 | 0.00 | 0.00 | 0.00 | 44 | 1018.1 |
| 20260510054540 | 59 | 202 | 0.0 | 0.0 | 0.00 | 0.00 | 0.00 | 43 | 1018.1 |
| 20260510053041 | 59 | 202 | 0.0 | 0.0 | 0.00 | 0.00 | 0.00 | 45 | 1018.1 |
| 20260510051557 | 59 | 202 | 0.0 | 0.0 | 0.00 | 0.00 | 0.00 | 50 | 1018.1 |
| 20260510050038 | 60 | 202 | 0.0 | 0.0 | 0.00 | 0.00 | 0.00 | 48 | 1018.0 |
| 20260510044539 | 61 | 202 | 0.0 | 0.0 | 0.00 | 0.00 | 0.00 | 46 | 1017.9 |
| 20260510043054 | 63 | 202 | 0.0 | 0.0 | 0.00 | 0.00 | 0.00 | 41 | 1017.6 |
| 20260510041537 | 65 | 202 | 0.0 | 0.0 | 0.00 | 0.00 | 0.00 | 38 | 1017.3 |
| 20260510040037 | 67 | 202 | 0.0 | 0.0 | 0.00 | 0.00 | 0.00 | 35 | 1017.2 |
| 20260510034542 | 68 | 202 | 0.0 | 0.0 | 0.00 | 0.00 | 0.00 | 31 | 1017.0 |
| 20260510033039 | 70 | 202 | 0.0 | 0.0 | 0.00 | 0.00 | 0.00 | 30 | 1016.8 |
| 20260510031604 | 71 | 202 | 0.0 | 0.0 | 0.00 | 0.00 | 0.00 | 30 | 1016.6 |
| 20260510030037 | 72 | 188 | 0.0 | 0.0 | 0.00 | 0.00 | 0.00 | 29 | 1016.4 |
| 20260510024537 | 73 | 198 | 0.0 | 0.0 | 0.00 | 0.00 | 0.00 | 27 | 1016.3 |
| 20260510023044 | 75 | 189 | 0.0 | 0.0 | 0.00 | 0.00 | 0.00 | 26 | 1016.2 |
| 20260510021538 | 77 | 154 | 0.0 | 0.0 | 0.00 | 0.00 | 0.00 | 25 | 1016.2 |
| 20260510020032 | 79 | 202 | 0.0 | 0.0 | 0.00 | 0.00 | 0.00 | 24 | 1016.3 |
| 20260510014532 | 80 | 181 | 0.0 | 0.0 | 0.00 | 0.00 | 0.00 | 24 | 1016.3 |
| 20260510013031 | 81 | 212 | 0.0 | 0.0 | 0.00 | 0.00 | 0.00 | 23 | 1016.3 |
| 20260510011530 | 83 | 119 | 0.0 | 0.0 | 0.00 | 0.00 | 0.00 | 22 | 1016.3 |
| 20260510010032 | 84 | 139 | 0.0 | 0.0 | 0.00 | 0.00 | 0.00 | 22 | 1016.4 |
| 20260510004527 | 84 | 229 | 0.0 | 0.0 | 0.00 | 0.00 | 0.00 | 21 | 1016.5 |
| 20260510003026 | 84 | 161 | 0.0 | 0.0 | 0.00 | 0.00 | 0.00 | 21 | 1016.5 |
| 20260510001525 | 85 | 224 | 0.0 | 0.0 | 0.00 | 0.00 | 0.00 | 20 | 1016.5 |
| 20260510000021 | 85 | 318 | 0.0 | 0.0 | 0.00 | 0.00 | 0.00 | 26 | 1016.7 |
| 20260509234521 | 85 | 314 | 0.0 | 0.0 | 0.00 | 0.00 | 0.00 | 27 | 1016.7 |
| 20260509233018 | 85 | 289 | 0.0 | 0.0 | 0.00 | 0.00 | 0.00 | 26 | 1016.8 |
| 20260509231516 | 85 | 7 | 0.0 | 0.0 | 0.00 | 0.00 | 0.00 | 25 | 1016.9 |
| 20260509230012 | 84 | 334 | 0.0 | 0.0 | 0.00 | 0.00 | 0.00 | 31 | 1017.0 |
| 20260509224510 | 84 | 265 | 0.0 | 0.0 | 0.00 | 0.00 | 0.00 | 28 | 1017.2 |
| 20260509223007 | 83 | 314 | 0.0 | 0.0 | 0.00 | 0.00 | 0.00 | 29 | 1017.5 |
| 20260509221506 | 82 | 41 | 0.0 | 0.0 | 0.00 | 0.00 | 0.00 | 33 | 1017.8 |
| 20260509220002 | 82 | 313 | 0.0 | 0.0 | 0.00 | 0.00 | 0.00 | 31 | 1018.1 |
| 20260509214600 | 82 | 52 | 0.0 | 0.0 | 0.00 | 0.00 | 0.00 | 31 | 1018.3 |
| 20260509213116 | 82 | 303 | 0.0 | 0.0 | 0.00 | 0.00 | 0.00 | 33 | 1018.5 |
| 20260509211613 | 81 | 324 | 0.0 | 0.0 | 0.00 | 0.00 | 0.00 | 33 | 1018.5 |
| 20260509210058 | 80 | 291 | 0.0 | 0.0 | 0.00 | 0.00 | 0.00 | 35 | 1018.6 |
| 20260509204559 | 79 | 46 | 0.0 | 0.0 | 0.00 | 0.00 | 0.00 | 35 | 1018.8 |
| 20260509203052 | 77 | 308 | 0.0 | 0.0 | 0.00 | 0.00 | 0.00 | 38 | 1019.0 |
| 20260509201540 | 76 | 292 | 0.0 | 0.0 | 0.00 | 0.00 | 0.00 | 37 | 1019.3 |
| 20260509200038 | 75 | 330 | 0.0 | 0.0 | 0.00 | 0.00 | 0.00 | 39 | 1019.5 |
| 20260509194533 | 74 | 336 | 0.0 | 0.0 | 0.00 | 0.00 | 0.00 | 40 | 1019.7 |
| 20260509193029 | 72 | 314 | 0.0 | 0.0 | 0.00 | 0.00 | 0.00 | 42 | 1019.8 |
| 20260509191524 | 71 | 346 | 0.0 | 0.0 | 0.00 | 0.00 | 0.00 | 45 | 1020.2 |
| 20260509190023 | 70 | 51 | 0.0 | 0.0 | 0.00 | 0.00 | 0.00 | 45 | 1020.3 |
| 20260509184516 | 68 | 317 | 0.0 | 0.0 | 0.00 | 0.00 | 0.00 | 47 | 1020.4 |
| 20260509183020 | 67 | 309 | 0.0 | 0.0 | 0.00 | 0.00 | 0.00 | 47 | 1020.5 |
| 20260509181508 | 66 | 291 | 0.0 | 0.0 | 0.00 | 0.00 | 0.00 | 50 | 1020.8 |
| 20260509180005 | 65 | 308 | 0.0 | 0.0 | 0.00 | 0.00 | 0.00 | 51 | 1020.9 |
| 20260509174502 | 64 | 16 | 0.0 | 0.0 | 0.00 | 0.00 | 0.00 | 52 | 1020.8 |
| 20260509173108 | 62 | 324 | 0.0 | 0.0 | 0.00 | 0.00 | 0.00 | 56 | 1020.9 |
| 20260509171606 | 61 | 332 | 0.0 | 0.0 | 0.00 | 0.00 | 0.00 | 56 | 1021.0 |
| 20260509170050 | 60 | 330 | 0.0 | 0.0 | 0.00 | 0.00 | 0.00 | 56 | 1021.2 |
| 20260509164546 | 58 | 36 | 0.0 | 0.0 | 0.00 | 0.00 | 0.00 | 61 | 1021.5 |
| 20260509163054 | 57 | 37 | 0.0 | 0.0 | 0.00 | 0.00 | 0.00 | 62 | 1021.6 |
| 20260509161541 | 55 | 35 | 0.0 | 0.0 | 0.00 | 0.00 | 0.00 | 66 | 1021.5 |
| 20260509160035 | 54 | 35 | 0.0 | 0.0 | 0.00 | 0.00 | 0.00 | 69 | 1021.7 |
| 20260509154535 | 52 | 36 | 0.0 | 0.0 | 0.00 | 0.00 | 0.00 | 74 | 1021.8 |
| 20260509153031 | 51 | 36 | 0.0 | 0.0 | 0.00 | 0.00 | 0.00 | 77 | 1021.8 |
| 20260509151530 | 50 | 36 | 0.0 | 0.0 | 0.00 | 0.00 | 0.00 | 78 | 1021.8 |
| 20260509150029 | 48 | 37 | 0.0 | 0.0 | 0.00 | 0.00 | 0.00 | 79 | 1021.7 |
| 20260509144526 | 47 | 39 | 0.0 | 0.0 | 0.00 | 0.00 | 0.00 | 83 | 1021.8 |
| 20260509143029 | 47 | 39 | 0.0 | 0.0 | 0.00 | 0.00 | 0.00 | 85 | 1021.7 |
| 20260509141529 | 45 | 39 | 0.0 | 0.0 | 0.00 | 0.00 | 0.00 | 85 | 1021.6 |
| 20260509140021 | 44 | 39 | 0.0 | 0.0 | 0.00 | 0.00 | 0.00 | 84 | 1021.7 |
| 20260509134520 | 44 | 39 | 0.0 | 0.0 | 0.00 | 0.00 | 0.00 | 83 | 1021.6 |
| 20260509133018 | 44 | 39 | 0.0 | 0.0 | 0.00 | 0.00 | 0.00 | 82 | 1021.6 |
| 20260509131522 | 44 | 39 | 0.0 | 0.0 | 0.00 | 0.00 | 0.00 | 81 | 1021.4 |
| 20260509130017 | 45 | 39 | 0.0 | 0.0 | 0.00 | 0.00 | 0.00 | 81 | 1021.3 |
| 20260509124514 | 44 | 39 | 0.0 | 0.0 | 0.00 | 0.00 | 0.00 | 81 | 1021.3 |
| 20260509123013 | 45 | 39 | 0.0 | 0.0 | 0.00 | 0.00 | 0.00 | 80 | 1021.4 |
| 20260509121512 | 45 | 39 | 0.0 | 0.0 | 0.00 | 0.00 | 0.00 | 80 | 1021.4 |
| 20260509120015 | 45 | 39 | 0.0 | 0.0 | 0.00 | 0.00 | 0.00 | 79 | 1021.4 |
| 20260509114509 | 45 | 39 | 0.0 | 0.0 | 0.00 | 0.00 | 0.00 | 79 | 1021.5 |
| 20260509113008 | 45 | 39 | 0.0 | 0.0 | 0.00 | 0.00 | 0.00 | 77 | 1021.6 |
| 20260509111506 | 46 | 39 | 0.0 | 0.0 | 0.00 | 0.00 | 0.00 | 77 | 1021.5 |
| 20260509110003 | 46 | 39 | 0.0 | 0.0 | 0.00 | 0.00 | 0.00 | 76 | 1021.5 |
| 20260509104503 | 46 | 39 | 0.0 | 0.0 | 0.00 | 0.00 | 0.00 | 76 | 1021.4 |
| 20260509103001 | 46 | 39 | 0.0 | 0.0 | 0.00 | 0.00 | 0.00 | 74 | 1021.4 |
| 20260509101600 | 47 | 39 | 0.0 | 0.0 | 0.00 | 0.00 | 0.00 | 74 | 1021.4 |
| 20260509100109 | 47 | 39 | 0.0 | 0.0 | 0.00 | 0.00 | 0.00 | 73 | 1021.4 |
| 20260509094555 | 48 | 39 | 0.0 | 0.0 | 0.00 | 0.00 | 0.00 | 70 | 1021.5 |
| 20260509093052 | 49 | 39 | 0.0 | 0.0 | 0.00 | 0.00 | 0.00 | 69 | 1021.4 |
| 20260509091551 | 49 | 39 | 0.0 | 0.0 | 0.00 | 0.00 | 0.00 | 68 | 1021.4 |
| 20260509090045 | 50 | 39 | 0.0 | 0.0 | 0.00 | 0.00 | 0.00 | 65 | 1021.4 |